Tracking 29065 objects as of 22-Jul-2024
HD Live streaming from Space Station
objects crossing your sky now

COSMOS 1275 DEB

Track COSMOS 1275 DEB now!
10-day predictions


NORAD ID: 15766
Int'l Code: 1981-053KE
Perigee: 780.0 km
Apogee: 787.3 km
Inclination: 82.9 °
Period: 100.4 minutes
Semi major axis: 7154 km
RCS: 0.0112 m2 (small)
Launch date: June 4, 1981
Source: Commonwealth of Independent States (former USSR) (CIS)
Launch site: PLESETSK MISSILE AND SPACE COMPLEX (PKMTR)

Note: This is SATELLITE DEBRIS
Your satellite tracking list
Your tracking list is empty




NASA's NSSDC Master Catalog

Two Line Element Set (TLE):
1 15766U 81053KB  24203.58668446  .00011100  00000-0  39237-2 0  9999
2 15766  82.9414 150.3638 0005104 182.4829 177.6335 14.34551663 14460
Source of the keplerian elements: AFSPC